Weather History for KLOZ - February, 2013

Change the Weather History Date:

Thursday, February 7, 2013

  Actual Average Record
Temperature  
Mean Temperature 47 °F 38 °F  
Max Temperature 58 °F 48 °F 67 °F (2009)
Min Temperature 36 °F 28 °F -10 °F (1978)
Degree Days  
Heating Degree Days 18 27  
Month to date heating degree days 206 194  
Since 1 July heating degree days 2789 2757  
Cooling Degree Days 0 0  
Month to date cooling degree days 0 0  
Year to date cooling degree days 0 0  
Moisture  
Dew Point 32 °F    
Average Humidity 57    
Maximum Humidity 82    
Minimum Humidity 32    
Precipitation  
Precipitation T in 0.13 in 0.65 in (1991)
Month to date precipitation 0.06 0.90  
Year to date precipitation 5.30 4.44  
Sea Level Pressure  
Sea Level Pressure 30.05 in    
Wind  
Wind Speed 2 mph (South)    
Max Wind Speed 10 mph    
Max Gust Speed 15 mph    
Visibility 10 miles    
Events      
T = Trace of Precipitation, MM = Missing Value Source: NWS Daily Summary

Daily Weather History Graph

Daily Weather History Graph

Search for Another Location

Airport or City:

Trip Planner

Search our weather history database for the weather conditions in past years. The results will help you decide how hot, cold, wet, or windy it might be!

Date:

Astronomy

Feb. 07, 2013 Rise Set
Actual Time 7:33 AM EST 6:08 PM EST
Civil Twilight 7:06 AM EST 6:35 PM EST
Nautical Twilight 6:35 AM EST 7:05 PM EST
Astronomical Twilight 6:05 AM EST 7:36 PM EST
Moon 5:09 AM EST (2/7) 3:33 PM EST (2/7)
Length of Visible Light 11h 28m
Length of Day
10h 34m
Waning Crescent, 9% of the Moon is Illuminated
Feb 7
Waning Crescent
Feb 10
New
Feb 17
First Quarter
Feb 25
Full
Mar 4
Last Quarter

Hourly Weather History & Observations

Time (EST) Temp. Windchill Dew Point Humidity Pressure Visibility Wind Dir Wind Speed Gust Speed Precip Events Conditions
12:53 AM 37.9 °F - 28.9 °F 70% 30.15 in 10.0 mi Calm Calm - N/A   Clear
1:53 AM 37.0 °F - 28.9 °F 73% 30.14 in 10.0 mi Calm Calm - N/A   Clear
2:53 AM 36.0 °F 33.3 °F 30.9 °F 82% 30.14 in 10.0 mi NE 3.5 mph - N/A   Clear
3:53 AM 37.0 °F - 30.0 °F 76% 30.15 in 10.0 mi Calm Calm - N/A   Clear
4:53 AM 37.0 °F - 30.0 °F 76% 30.15 in 10.0 mi Calm Calm - N/A   Clear
5:53 AM 37.0 °F - 30.0 °F 76% 30.13 in 10.0 mi Calm Calm - N/A   Clear
6:53 AM 37.0 °F - 30.9 °F 79% 30.13 in 10.0 mi Calm Calm - N/A   Clear
7:53 AM 37.0 °F - 32.0 °F 82% 30.13 in 10.0 mi Calm Calm - N/A   Clear
8:53 AM 42.1 °F - 30.0 °F 62% 30.12 in 10.0 mi Calm Calm - N/A   Clear
9:53 AM 46.9 °F - 28.9 °F 50% 30.12 in 10.0 mi Calm Calm - N/A   Clear
11:53 AM 55.0 °F - 27.0 °F 34% 30.08 in 10.0 mi SW 6.9 mph - N/A   Partly Cloudy
12:53 PM 57.0 °F - 28.9 °F 34% 30.05 in 10.0 mi Calm Calm - N/A   Clear
1:53 PM 57.0 °F - 28.9 °F 34% 30.01 in 10.0 mi Calm Calm - N/A   Clear
2:53 PM 57.0 °F - 30.0 °F 36% 29.99 in 10.0 mi Calm Calm - N/A   Scattered Clouds
3:53 PM 57.9 °F - 30.9 °F 36% 29.98 in 10.0 mi Calm Calm - N/A   Overcast
4:53 PM 57.0 °F - 30.9 °F 37% 29.96 in 10.0 mi SE 3.5 mph - N/A   Mostly Cloudy
5:53 PM 57.0 °F - 30.9 °F 37% 29.96 in 10.0 mi Calm Calm - N/A   Overcast
6:53 PM 55.0 °F - 32.0 °F 42% 29.96 in 10.0 mi South 4.6 mph - N/A   Overcast
7:53 PM 54.0 °F - 36.0 °F 51% 29.96 in 10.0 mi South 3.5 mph - N/A   Overcast
8:53 PM 52.0 °F - 37.0 °F 57% 29.95 in 10.0 mi South 6.9 mph - N/A   Overcast
9:53 PM 50.0 °F - 39.9 °F 68% 29.94 in 10.0 mi South 3.5 mph - 0.00 in   Overcast
10:53 PM 48.9 °F - 41.0 °F 74% 29.93 in 10.0 mi SSW 3.5 mph - N/A   Overcast
11:53 PM 48.0 °F - 41.0 °F 77% 29.91 in 10.0 mi SSW 4.6 mph - N/A   Overcast